OBJECT X, 47953

Orbit data source: Space-Track

You're viewing an Uncataloged Satellite

Recently launched and/or uncataloged satellites may have evolving metadata. Metadata may include but not limited to: Owner, Maufacturer, Bus, Motor, and Mission.

OBJECT X, 47953 is a satellite in SSO that was launched on Mon, 22 Mar 2021 UTC via a SOYUZ-2-1A launch vehicle from the Tyuratam Missile And Space Complex (TTMTR). Unknown objects in Earth's orbit typically refer to objects detected orbiting the Earth but have not yet been identified or cataloged. These objects could be anything from previously untracked satellites, spent rocket stages, debris from satellite collisions, or even natural meteoroids temporarily captured by Earth's gravity.

Loading next visibility...
Identifier
47953, 2021-022X
Orbit
SSO
Country
Flag of TBDTBD
Related business
None
Manufacturer
Unknown
Mission
Commercial Technology
Bus & Motor
Unknown
Mass
Unknown
Launch date (UTC)
2021-03-22 (5 years ago)
Launch vehicle
SOYUZ-2-1A
Launch site
Tyuratam Missile And Space Complex (TTMTR)
Object type
Unknown
Shape & HBR
Box, 0.1 m
Radar Cross Section
0.035 m², Small (<0.1 m²)

Expand to show TLE details & history
Last TLE update: 15 hours ago

TLE from 15 hours ago
0 OBJECT X
1 47953U 21022X   25348.99995459  .00027862  00000-0  49554-3 0  9991
2 47953  97.4052 253.1167 0009225  20.9818 339.1810 15.50085720261779
Epoch: 2025-12-14T23:59Z
TLE epoch observation values (Epoch: 2025-12-14T23:59:56.076Z)
Latitude
-0.00004°
Longitude
169.22825°
Altitude
413.747 km
Speed
7.666 km/s
True Right ascension
16h 52m 28s
True Declination
0° 00' 00"
Sunlit
Object was in daylight at epoch
Visualization orbit readout
Latitude
Unknown
Longitude
Unknown
Altitude
Unknown
Speed
Unknown
Apparent Right ascension
Unknown
Apparent Declination
Unknown
Sunlit
N/A
Visualization observer readout
Local Sidereal Time
13:20:32
Azimuth
Unknown
Elevation
Unknown
Doppler factor
Unknown
Orbital elements
Apogee altitude
419.667 km
Perigee altitude
407.136 km
Semi-major axis
6,791.538 km
Eccentricity
0.00092
Inclination
97.4052°
RAAN
253.1167°
Arg. of periapsis
20.9818°
True anomaly
339.14339°
Mean anomaly
339.181°
Eccentric anomaly
339.1622°
Mean motion
3.87785 °/min
Orbital period
92.83 mins
BSTAR
0.00049554
Loading maneuver chart data...
Computing Atmospheric mass density...
Loading historical data...
Loading historical data...
Loading historical data...
Loading historical data...
Loading historical data...
Loading historical data...
Loading historical data...

Documentation

Showing up to 5 results
|